Location: Unspecified
(35.6961°N, 0.0000°E)
Time: 21:28:20
(UTC+00:00)

Courier 1B Rocket - Visible Passes

Search period start: 29 September 2020 00:00
Search period end: 09 October 2020 00:00
Orbit: 920 x 1202 km, 28.2° (Epoch: 28 September)

Date Brightness Start Highest point End Pass type
(mag) Time Alt. Az. Time Alt. Az. Time Alt. Az.
29 Sep 6.9 05:13:15 10° SSW 05:17:51 21° SSE 05:22:22 10° ESE visible
30 Sep 7.1 04:13:25 10° S 04:17:05 16° SSE 04:20:39 10° ESE visible
01 Oct 7.3 03:15:44 11° SSE 03:16:16 11° SSE 03:17:47 10° SE visible
01 Oct 6.4 05:03:35 10° SW 05:08:57 28° SSE 05:14:09 10° ESE visible
02 Oct 6.7 04:05:05 16° SSW 04:08:08 22° SSE 04:12:53 10° ESE visible
03 Oct 7.0 03:08:00 17° SSE 03:08:00 17° SSE 03:11:18 10° ESE visible
03 Oct 6.1 04:54:23 11° SW 05:00:05 34° SSE 05:05:42 10° ESE visible
04 Oct 6.3 03:57:15 25° SSW 03:59:14 29° SSE 04:04:39 10° ESE visible
05 Oct 6.8 03:00:06 21° SE 03:00:06 21° SE 03:03:26 10° ESE visible
05 Oct 5.8 04:46:28 16° SW 04:51:15 40° S 04:57:08 10° ESE visible
06 Oct 5.9 03:49:17 34° S 03:50:20 36° SSE 03:56:12 10° ESE visible
07 Oct 6.8 02:52:04 24° SE 02:52:04 24° SE 02:55:09 10° ESE visible
07 Oct 5.7 04:38:26 22° WSW 04:42:25 44° S 04:48:28 10° ESE visible
08 Oct 5.7 03:41:13 42° S 03:41:27 42° S 03:47:36 10° ESE visible
08 Oct 5.8 05:28:12 10° WSW 05:34:31 42° S 05:40:28 10° ESE visible
